Weather History for West Palm Beach, FL

Change the Weather History Date:

Monday, January 7, 2013

  Actual Average Record
Temperature  
Mean Temperature 73 °F 66 °F  
Max Temperature 79 °F 74 °F 86 °F (1960)
Min Temperature 66 °F 57 °F 37 °F (2010)
Degree Days  
Heating Degree Days 0 3  
Month to date heating degree days 0 21  
Since 1 July heating degree days 43 92  
Cooling Degree Days 8 4  
Month to date cooling degree days 50 28  
Year to date cooling degree days 50 28  
Growing Degree Days 22 (Base 50)    
Moisture  
Dew Point 67 °F    
Average Humidity 83    
Maximum Humidity 97    
Minimum Humidity 69    
Precipitation  
Precipitation 0.01 in 0.11 in 0.84 in (1958)
Month to date precipitation 0.01 0.77  
Year to date precipitation 0.01 0.77  
Snow  
Snow 0.00 in - - ()
Month to date snowfall 0.0  
Since 1 July snowfall 0.0  
Snow Depth 0.00 in    
Sea Level Pressure  
Sea Level Pressure 30.12 in    
Wind  
Wind Speed 7 mph (North)    
Max Wind Speed 14 mph    
Max Gust Speed 17 mph    
Visibility 10 miles    
Events Rain    
T = Trace of Precipitation, MM = Missing Value Source: NWS Daily Summary

Daily Weather History Graph

Daily Weather History Graph

Search for Another Location

Airport:

Trip Planner

Search our weather history database for the weather conditions in past years. The results will help you decide how hot, cold, wet, or windy it might be!

Date:

Astronomy

Jan. 07, 2013 Rise Set
Actual Time 7:10 AM EST 5:43 PM EST
Civil Twilight 6:45 AM EST 6:08 PM EST
Nautical Twilight 6:16 AM EST 6:37 PM EST
Astronomical Twilight 5:48 AM EST 7:05 PM EST
Moon 2:38 AM EST (1/7) 1:48 PM EST (1/7)
Length of Visible Light 11h 23m
Length of Day
10h 33m
Waning Crescent, 23% of the Moon is Illuminated
Jan 7
Waning Crescent
Jan 11
New
Jan 18
First Quarter
Jan 26
Full
Feb 3
Last Quarter

Hourly Weather History & Observations

Time (EST) Temp. Dew Point Humidity Pressure Visibility Wind Dir Wind Speed Gust Speed Precip Events Conditions
12:53 AM 70.0 °F 68.0 °F 93% 30.11 in 10.0 mi NW 4.6 mph - N/A   Scattered Clouds
1:53 AM 69.1 °F 66.0 °F 90% 30.10 in 10.0 mi Calm Calm - N/A   Scattered Clouds
2:53 AM 68.0 °F 66.0 °F 93% 30.09 in 10.0 mi NW 3.5 mph - N/A   Scattered Clouds
3:53 AM 68.0 °F 66.9 °F 96% 30.09 in 10.0 mi NW 4.6 mph - N/A   Mostly Cloudy
4:53 AM 70.0 °F 66.9 °F 90% 30.08 in 10.0 mi NNW 3.5 mph - N/A   Mostly Cloudy
5:53 AM 69.1 °F 66.0 °F 90% 30.09 in 10.0 mi Calm Calm - N/A   Mostly Cloudy
6:53 AM 66.0 °F 64.0 °F 93% 30.12 in 10.0 mi NW 4.6 mph - N/A   Scattered Clouds
7:43 AM 69.8 °F 66.2 °F 88% 30.14 in 10.0 mi North 4.6 mph - N/A   Mostly Cloudy
7:53 AM 70.0 °F 66.9 °F 90% 30.14 in 10.0 mi North 6.9 mph - N/A   Mostly Cloudy
8:53 AM 73.9 °F 68.0 °F 82% 30.15 in 10.0 mi North 11.5 mph - N/A   Mostly Cloudy
9:53 AM 75.0 °F 68.0 °F 79% 30.16 in 10.0 mi North 9.2 mph - N/A   Mostly Cloudy
10:53 AM 75.9 °F 66.9 °F 74% 30.16 in 10.0 mi North 10.4 mph - N/A   Mostly Cloudy
11:53 AM 77.0 °F 66.9 °F 71% 30.13 in 10.0 mi NNW 11.5 mph - N/A   Mostly Cloudy
12:53 PM 75.9 °F 66.9 °F 74% 30.11 in 10.0 mi NNE 11.5 mph - N/A   Overcast
1:03 PM 75.2 °F 66.2 °F 73% 30.11 in 7.0 mi NNE 11.5 mph - 0.00 in Rain Light Rain
1:53 PM 75.9 °F 68.0 °F 76% 30.09 in 10.0 mi NNE 9.2 mph - 0.01 in Rain Light Rain
2:25 PM 73.4 °F 66.2 °F 78% 30.09 in 10.0 mi ENE 8.1 mph - 0.00 in   Overcast
2:53 PM 75.9 °F 66.9 °F 74% 30.09 in 10.0 mi NNE 9.2 mph - 0.00 in   Overcast
3:53 PM 73.9 °F 66.9 °F 79% 30.09 in 10.0 mi NNE 9.2 mph - N/A   Overcast
4:53 PM 73.9 °F 66.9 °F 79% 30.10 in 10.0 mi North 5.8 mph - 0.00 in   Overcast
5:53 PM 73.0 °F 66.9 °F 81% 30.11 in 10.0 mi North 5.8 mph - N/A   Overcast
6:53 PM 72.0 °F 66.9 °F 84% 30.12 in 10.0 mi North 3.5 mph - N/A   Overcast
7:53 PM 73.0 °F 68.0 °F 84% 30.13 in 10.0 mi Calm Calm - N/A   Mostly Cloudy
8:53 PM 75.0 °F 69.1 °F 82% 30.14 in 10.0 mi NNE 6.9 mph - N/A   Overcast
9:53 PM 75.0 °F 68.0 °F 79% 30.14 in 10.0 mi ENE 9.2 mph - N/A   Scattered Clouds
10:53 PM 73.9 °F 68.0 °F 82% 30.13 in 10.0 mi ENE 8.1 mph - N/A   Mostly Cloudy
11:53 PM 73.9 °F 69.1 °F 85% 30.12 in 10.0 mi East 10.4 mph - 0.00 in   Mostly Cloudy